Location: Boitzum
(52.1496°N, 9.6943°E)
Time: 22:49:19
(UTC+00:00)

Cosmos 1140 Rocket - Pass Details

Date: 13 January 2026
Orbit: 739 x 763 km, 74.1° (Epoch: 7 February)

Event Time Altitude Azimuth Distance (km) Brightness Sun altitude
Rises 06:18:36 0° 210° (SSW) 3,164 6.6 -9.7°
Reaches altitude 10° 06:20:57 10° 213° (SSW) 2,246 5.8 -9.4°
Maximum altitude 06:26:01 70° 297° (WNW) 791 3.4 -8.6°
Drops below altitude 10° 06:31:09 10° 22° (NNE) 2,272 5.9 -7.9°
Sets 06:33:33 0° 25° (NNE) 3,203 6.7 -7.6°
